TimeEST,TemperatureF,Dew PointF,Humidity,Sea Level PressureIn,VisibilityMPH,Wind Direction,Wind SpeedMPH,Gust SpeedMPH,PrecipitationIn,Events,Conditions,WindDirDegrees,DateUTC
12:54 AM,62.1,48.0,60,30.09,10.0,West,10.4,-,N/A,,Clear,260,2013-12-21 05:54:00
1:54 AM,61.0,48.0,62,30.08,10.0,WSW,12.7,18.4,N/A,,Clear,240,2013-12-21 06:54:00
2:54 AM,62.1,48.0,60,30.08,10.0,WSW,12.7,-,N/A,,Clear,250,2013-12-21 07:54:00
3:54 AM,52.0,46.0,80,30.08,10.0,South,5.8,-,N/A,,Clear,170,2013-12-21 08:54:00
4:54 AM,52.0,46.9,83,30.09,10.0,South,9.2,-,N/A,,Clear,180,2013-12-21 09:54:00
5:54 AM,52.0,48.0,86,30.09,10.0,SSW,10.4,-,N/A,,Clear,210,2013-12-21 10:54:00
6:54 AM,48.9,46.0,90,30.11,9.0,South,6.9,-,N/A,,Clear,190,2013-12-21 11:54:00
7:54 AM,52.0,48.9,89,30.10,10.0,SSW,9.2,-,N/A,,Overcast,210,2013-12-21 12:54:00
8:54 AM,53.1,48.9,86,30.11,10.0,SSW,13.8,-,N/A,,Mostly Cloudy,210,2013-12-21 13:54:00
9:54 AM,57.0,51.1,81,30.13,10.0,SW,13.8,-,N/A,,Overcast,220,2013-12-21 14:54:00
10:54 AM,63.0,52.0,67,30.11,10.0,SSW,13.8,-,N/A,,Overcast,200,2013-12-21 15:54:00
11:54 AM,63.0,52.0,67,30.08,10.0,SSW,13.8,-,N/A,,Clear,200,2013-12-21 16:54:00
12:54 PM,66.0,53.1,63,30.05,10.0,SSW,15.0,-,N/A,,Clear,200,2013-12-21 17:54:00
1:54 PM,63.0,53.1,70,30.04,10.0,SSW,17.3,-,N/A,,Clear,210,2013-12-21 18:54:00
2:54 PM,60.1,53.1,78,30.04,10.0,SSW,17.3,-,N/A,,Clear,210,2013-12-21 19:54:00
3:54 PM,57.0,52.0,83,30.04,10.0,SSW,12.7,-,N/A,,Clear,210,2013-12-21 20:54:00
4:54 PM,55.0,51.1,86,30.04,10.0,SSW,11.5,-,N/A,,Clear,210,2013-12-21 21:54:00
5:54 PM,55.0,52.0,89,30.05,10.0,SSW,11.5,-,N/A,,Clear,200,2013-12-21 22:54:00
6:54 PM,57.0,54.0,89,30.05,10.0,SSW,17.3,-,N/A,,Clear,210,2013-12-21 23:54:00
7:54 PM,57.9,55.0,90,30.06,10.0,SSW,15.0,24.2,N/A,,Clear,210,2013-12-22 00:54:00
8:54 PM,57.0,54.0,89,30.05,10.0,SSW,18.4,25.3,N/A,,Clear,210,2013-12-22 01:54:00
9:02 PM,57.9,55.0,90,30.06,10.0,SW,16.1,25.3,N/A,,Partly Cloudy,220,2013-12-22 02:02:00
9:54 PM,57.9,55.0,90,30.06,9.0,SW,12.7,-,N/A,,Scattered Clouds,220,2013-12-22 02:54:00
10:04 PM,57.9,55.0,90,30.06,8.0,SW,13.8,-,N/A,,Mostly Cloudy,220,2013-12-22 03:04:00
10:54 PM,57.0,55.0,93,30.05,8.0,SSW,13.8,-,N/A,,Mostly Cloudy,210,2013-12-22 03:54:00
11:54 PM,57.0,55.0,93,30.04,8.0,SSW,15.0,-,N/A,,Scattered Clouds,210,2013-12-22 04:54:00